MSOLO KFPY-X06

Flight info

Callsign MSOLO
Flight time N/A
Altitude 7500
Route MICES DEANR PATOY BAYPO 281035N0822547W/TUMPY VP088 275059N0821554W/TVTOWERS 273742N0820906W/VPDUT CURSD 271503N0815334W/ROGAN
Aircraft EC45/L-SDFGRY/EB1

Departure

Time 2026-04-15 19:06
Airport Perry-Foley Airport (KFPY)

Arrival

Time N/A
Airport X06
Time Latitude Longitude Altitude Speed Heading
2026-04-15 18:47 30.07684 -83.57492 51 ft 0 kts 179°
2026-04-15 18:58 30.07686 -83.57494 51 ft 0 kts 180°
2026-04-15 18:59 30.07685 -83.57491 55 ft 0 kts 180°
2026-04-15 18:59 30.07669 -83.57502 57 ft 6 kts 223°
2026-04-15 18:59 30.07661 -83.57532 62 ft 4 kts 274°
2026-04-15 19:00 30.07662 -83.57562 66 ft 4 kts 274°
2026-04-15 19:00 30.07665 -83.57593 65 ft 4 kts 271°
2026-04-15 19:00 30.07692 -83.57622 64 ft 4 kts 262°
2026-04-15 19:00 30.07679 -83.57648 60 ft 5 kts 262°
2026-04-15 19:01 30.07665 -83.57702 61 ft 8 kts 274°
2026-04-15 19:01 30.07660 -83.57761 66 ft 7 kts 281°
2026-04-15 19:01 30.07659 -83.57816 64 ft 7 kts 281°
2026-04-15 19:01 30.07660 -83.57871 64 ft 7 kts 281°
2026-04-15 19:02 30.07660 -83.57927 65 ft 7 kts 281°
2026-04-15 19:02 30.07662 -83.57982 66 ft 7 kts 281°
2026-04-15 19:02 30.07660 -83.58051 67 ft 9 kts 281°
2026-04-15 19:02 30.07661 -83.58125 64 ft 9 kts 281°
2026-04-15 19:03 30.07662 -83.58197 66 ft 9 kts 281°
2026-04-15 19:03 30.07666 -83.58267 66 ft 10 kts 282°
2026-04-15 19:03 30.07679 -83.58327 67 ft 6 kts 261°
2026-04-15 19:03 30.07671 -83.58383 65 ft 7 kts 261°
2026-04-15 19:04 30.07641 -83.58434 66 ft 8 kts 260°
2026-04-15 19:04 30.07614 -83.58481 63 ft 6 kts 213°
2026-04-15 19:04 30.07568 -83.58496 63 ft 8 kts 187°
2026-04-15 19:04 30.07517 -83.58494 63 ft 6 kts 188°
2026-04-15 19:05 30.07480 -83.58528 184 ft 9 kts 188°
2026-04-15 19:05 30.07416 -83.58608 216 ft 22 kts 178°
2026-04-15 19:05 30.07175 -83.58678 295 ft 49 kts 173°
2026-04-15 19:05 30.06743 -83.58626 410 ft 76 kts 175°
2026-04-15 19:06 30.06188 -83.58504 612 ft 81 kts 172°
2026-04-15 19:06 30.05651 -83.58383 787 ft 77 kts 178°
2026-04-15 19:06 30.05142 -83.58218 955 ft 75 kts 164°
2026-04-15 19:06 30.04656 -83.58055 1108 ft 71 kts 168°
2026-04-15 19:07 30.04194 -83.57904 1257 ft 69 kts 165°
2026-04-15 19:07 30.03756 -83.57753 1235 ft 62 kts 169°
2026-04-15 19:07 30.03358 -83.57614 1228 ft 57 kts 169°
2026-04-15 19:07 30.02983 -83.57550 1215 ft 52 kts 178°
2026-04-15 19:08 30.02636 -83.57515 1218 ft 48 kts 181°
2026-04-15 19:08 30.02313 -83.57484 1205 ft 46 kts 176°
2026-04-15 19:08 30.02005 -83.57453 1212 ft 43 kts 182°
2026-04-15 19:08 30.01713 -83.57423 1219 ft 42 kts 176°
2026-04-15 19:09 30.01427 -83.57395 1265 ft 43 kts 178°
2026-04-15 19:09 30.00985 -83.57359 1321 ft 78 kts 176°
2026-04-15 19:09 30.00464 -83.57303 1409 ft 76 kts 176°
2026-04-15 19:09 29.99841 -83.57238 1440 ft 93 kts 175°
2026-04-15 19:10 29.99220 -83.57163 1444 ft 91 kts 176°
2026-04-15 19:10 29.98581 -83.57086 1468 ft 93 kts 174°
2026-04-15 19:10 29.97943 -83.57006 1503 ft 89 kts 175°
2026-04-15 19:10 29.97331 -83.56931 1543 ft 88 kts 175°
2026-04-15 19:11 29.96707 -83.56861 1653 ft 90 kts 175°
2026-04-15 19:11 29.96089 -83.56790 1786 ft 87 kts 175°
2026-04-15 19:11 29.95698 -83.56743 1873 ft 84 kts 176°
2026-04-15 19:11 29.95100 -83.56674 2026 ft 87 kts 177°
2026-04-15 19:12 29.94485 -83.56605 2225 ft 90 kts 174°
2026-04-15 19:12 29.93862 -83.56536 2472 ft 90 kts 171°
2026-04-15 19:12 29.93235 -83.56465 2720 ft 91 kts 169°
2026-04-15 19:12 29.92602 -83.56392 2963 ft 92 kts 169°
2026-04-15 19:13 29.91962 -83.56318 3210 ft 93 kts 168°
2026-04-15 19:13 29.91318 -83.56243 3458 ft 95 kts 166°
2026-04-15 19:13 29.90672 -83.56166 3700 ft 93 kts 166°
2026-04-15 19:13 29.90023 -83.56088 3943 ft 96 kts 168°
2026-04-15 19:14 29.89356 -83.56007 4196 ft 96 kts 167°
2026-04-15 19:14 29.88708 -83.55928 4443 ft 93 kts 167°
2026-04-15 19:14 29.88061 -83.55849 4698 ft 94 kts 168°
2026-04-15 19:14 29.87412 -83.55769 4943 ft 94 kts 168°
2026-04-15 19:15 29.86760 -83.55679 5185 ft 93 kts 162°
2026-04-15 19:15 29.86201 -83.55348 5428 ft 90 kts 142°
2026-04-15 19:15 29.85681 -83.54939 5673 ft 90 kts 141°
2026-04-15 19:15 29.85168 -83.54527 5920 ft 90 kts 141°
2026-04-15 19:16 29.84657 -83.54115 6172 ft 90 kts 141°
2026-04-15 19:16 29.84144 -83.53699 6424 ft 90 kts 142°
2026-04-15 19:16 29.83637 -83.53287 6665 ft 90 kts 140°
2026-04-15 19:16 29.83131 -83.52873 6896 ft 89 kts 140°
2026-04-15 19:17 29.82625 -83.52459 7131 ft 90 kts 140°
2026-04-15 19:17 29.82114 -83.52040 7365 ft 90 kts 141°
2026-04-15 19:17 29.81602 -83.51621 7604 ft 91 kts 141°
2026-04-15 19:17 29.81092 -83.51195 7659 ft 91 kts 140°
2026-04-15 19:18 29.80527 -83.50716 7547 ft 113 kts 141°
2026-04-15 19:18 29.79875 -83.50170 7532 ft 117 kts 142°
2026-04-15 19:18 29.78535 -83.49048 7505 ft 121 kts 141°
2026-04-15 19:19 29.77850 -83.48478 7500 ft 122 kts 142°
2026-04-15 19:19 29.77166 -83.47909 7497 ft 121 kts 142°
2026-04-15 19:19 29.76478 -83.47339 7496 ft 121 kts 142°
2026-04-15 19:19 29.75792 -83.46771 7496 ft 121 kts 141°
2026-04-15 19:20 29.75113 -83.46209 7492 ft 120 kts 142°
2026-04-15 19:20 29.74435 -83.45649 7493 ft 120 kts 141°
2026-04-15 19:20 29.73761 -83.45092 7491 ft 119 kts 142°
2026-04-15 19:20 29.73086 -83.44535 7490 ft 119 kts 142°
2026-04-15 19:21 29.72411 -83.43979 7489 ft 119 kts 142°
2026-04-15 19:21 29.71738 -83.43425 7486 ft 119 kts 142°
2026-04-15 19:21 29.71069 -83.42874 7486 ft 119 kts 142°
2026-04-15 19:21 29.70400 -83.42322 7485 ft 118 kts 142°
2026-04-15 19:22 29.69728 -83.41769 7485 ft 119 kts 142°
2026-04-15 19:22 29.69057 -83.41218 7485 ft 118 kts 141°
2026-04-15 19:22 29.68390 -83.40667 7486 ft 118 kts 141°
2026-04-15 19:22 29.67724 -83.40119 7484 ft 118 kts 142°
2026-04-15 19:23 29.67055 -83.39569 7484 ft 119 kts 142°
2026-04-15 19:23 29.66385 -83.39018 7484 ft 118 kts 142°
2026-04-15 19:23 29.65731 -83.38479 7491 ft 112 kts 141°
2026-04-15 19:23 29.65094 -83.37954 7480 ft 114 kts 141°
2026-04-15 19:24 29.64443 -83.37421 7481 ft 116 kts 142°
2026-04-15 19:24 29.63784 -83.36881 7482 ft 116 kts 142°
2026-04-15 19:24 29.63129 -83.36343 7484 ft 115 kts 141°
2026-04-15 19:24 29.62485 -83.35812 7480 ft 114 kts 142°
2026-04-15 19:25 29.61834 -83.35280 7479 ft 116 kts 142°
2026-04-15 19:25 29.61176 -83.34741 7482 ft 116 kts 141°
2026-04-15 19:25 29.60528 -83.34208 7483 ft 114 kts 141°
2026-04-15 19:25 29.59882 -83.33677 7480 ft 115 kts 141°
2026-04-15 19:26 29.59230 -83.33143 7482 ft 116 kts 141°
2026-04-15 19:26 29.58584 -83.32613 7481 ft 113 kts 141°
2026-04-15 19:26 29.57950 -83.32092 7480 ft 114 kts 141°
2026-04-15 19:26 29.57300 -83.31561 7479 ft 116 kts 142°
2026-04-15 19:27 29.56639 -83.31020 7478 ft 117 kts 141°
2026-04-15 19:27 29.55983 -83.30481 7478 ft 115 kts 142°
2026-04-15 19:27 29.55335 -83.29948 7477 ft 114 kts 141°
2026-04-15 19:27 29.54686 -83.29416 7474 ft 116 kts 142°
2026-04-15 19:28 29.54029 -83.28879 7477 ft 115 kts 142°
2026-04-15 19:28 29.53376 -83.28343 7475 ft 116 kts 141°
2026-04-15 19:28 29.52717 -83.27802 7486 ft 116 kts 141°
2026-04-15 19:28 29.52066 -83.27267 7486 ft 115 kts 141°
2026-04-15 19:29 29.51409 -83.26730 7484 ft 117 kts 142°
2026-04-15 19:29 29.50751 -83.26190 7485 ft 116 kts 142°
2026-04-15 19:29 29.50091 -83.25650 7484 ft 117 kts 142°
2026-04-15 19:29 29.49429 -83.25109 7486 ft 116 kts 141°
2026-04-15 19:30 29.48774 -83.24571 7483 ft 115 kts 141°
2026-04-15 19:30 29.48119 -83.24035 7481 ft 116 kts 142°
2026-04-15 19:30 29.47463 -83.23499 7485 ft 115 kts 141°
2026-04-15 19:30 29.46809 -83.22964 7485 ft 115 kts 141°
2026-04-15 19:31 29.46163 -83.22434 7484 ft 113 kts 141°
2026-04-15 19:31 29.45521 -83.21908 7482 ft 114 kts 141°
2026-04-15 19:31 29.44872 -83.21377 7483 ft 115 kts 141°
2026-04-15 19:31 29.44219 -83.20843 7482 ft 115 kts 141°
2026-04-15 19:32 29.43574 -83.20316 7482 ft 113 kts 142°
2026-04-15 19:32 29.42928 -83.19789 7481 ft 115 kts 141°
2026-04-15 19:32 29.42273 -83.19255 7484 ft 116 kts 142°
2026-04-15 19:32 29.41618 -83.18720 7487 ft 115 kts 141°
2026-04-15 19:33 29.40972 -83.18191 7482 ft 115 kts 142°
2026-04-15 19:33 29.40315 -83.17655 7486 ft 116 kts 142°
2026-04-15 19:33 29.39667 -83.17125 7484 ft 116 kts 142°
2026-04-15 19:33 29.39015 -83.16592 7487 ft 114 kts 142°
2026-04-15 19:34 29.38370 -83.16065 7482 ft 115 kts 142°
2026-04-15 19:34 29.37709 -83.15527 7483 ft 118 kts 142°
2026-04-15 19:34 29.37039 -83.14981 7485 ft 118 kts 142°
2026-04-15 19:34 29.36372 -83.14436 7482 ft 118 kts 142°
2026-04-15 19:35 29.35703 -83.13891 7484 ft 117 kts 142°
2026-04-15 19:35 29.35041 -83.13350 7481 ft 117 kts 142°
2026-04-15 19:35 29.34379 -83.12810 7482 ft 117 kts 142°
2026-04-15 19:35 29.33719 -83.12271 7482 ft 117 kts 142°
2026-04-15 19:36 29.33057 -83.11730 7485 ft 116 kts 142°
2026-04-15 19:36 29.32402 -83.11193 7481 ft 116 kts 142°
2026-04-15 19:36 29.31741 -83.10655 7484 ft 116 kts 142°
2026-04-15 19:36 29.31083 -83.10119 7480 ft 117 kts 142°
2026-04-15 19:37 29.30419 -83.09578 7485 ft 117 kts 143°
2026-04-15 19:37 29.29758 -83.09039 7482 ft 117 kts 143°
2026-04-15 19:37 29.29095 -83.08500 7483 ft 117 kts 143°
2026-04-15 19:37 29.28434 -83.07962 7482 ft 116 kts 142°
2026-04-15 19:38 29.27771 -83.07423 7480 ft 117 kts 142°
2026-04-15 19:38 29.27108 -83.06882 7480 ft 117 kts 142°
2026-04-15 19:38 29.26444 -83.06342 7479 ft 117 kts 142°
2026-04-15 19:38 29.25782 -83.05801 7479 ft 117 kts 142°
2026-04-15 19:39 29.25120 -83.05261 7479 ft 117 kts 143°
2026-04-15 19:39 29.24458 -83.04719 7480 ft 117 kts 143°
2026-04-15 19:39 29.23795 -83.04177 7479 ft 117 kts 143°
2026-04-15 19:39 29.23131 -83.03634 7481 ft 117 kts 142°
2026-04-15 19:40 29.22468 -83.03091 7479 ft 117 kts 142°
2026-04-15 19:40 29.21805 -83.02548 7480 ft 117 kts 142°
2026-04-15 19:40 29.21142 -83.02006 7480 ft 117 kts 142°
2026-04-15 19:40 29.20480 -83.01465 7478 ft 117 kts 143°
2026-04-15 19:41 29.19815 -83.00922 7480 ft 117 kts 143°
2026-04-15 19:41 29.19152 -83.00380 7478 ft 117 kts 142°
2026-04-15 19:41 29.18490 -82.99838 7477 ft 117 kts 142°
2026-04-15 19:41 29.17826 -82.99295 7480 ft 117 kts 142°
2026-04-15 19:42 29.17163 -82.98753 7479 ft 117 kts 142°
2026-04-15 19:42 29.16510 -82.98219 7479 ft 117 kts 143°
2026-04-15 19:42 29.15848 -82.97679 7479 ft 117 kts 143°
2026-04-15 19:42 29.15187 -82.97140 7479 ft 117 kts 143°
2026-04-15 19:43 29.14513 -82.96590 7483 ft 118 kts 142°
2026-04-15 19:43 29.13860 -82.96056 7481 ft 117 kts 143°
2026-04-15 19:43 29.13195 -82.95514 7480 ft 117 kts 143°
2026-04-15 19:43 29.12525 -82.94967 7480 ft 116 kts 142°
2026-04-15 19:44 29.11873 -82.94435 7480 ft 117 kts 142°
2026-04-15 19:44 29.11209 -82.93894 7480 ft 117 kts 143°
2026-04-15 19:44 29.10543 -82.93350 7480 ft 118 kts 143°
2026-04-15 19:44 29.09876 -82.92806 7480 ft 118 kts 143°
2026-04-15 19:45 29.09211 -82.92263 7480 ft 117 kts 142°
2026-04-15 19:45 29.08548 -82.91723 7479 ft 117 kts 142°
2026-04-15 19:45 29.07881 -82.91180 7480 ft 118 kts 142°
2026-04-15 19:45 29.07214 -82.90636 7480 ft 118 kts 143°
2026-04-15 19:46 29.06520 -82.90133 7478 ft 119 kts 151°
2026-04-15 19:46 29.05770 -82.89747 7488 ft 117 kts 156°
2026-04-15 19:46 29.05021 -82.89388 7482 ft 117 kts 156°
2026-04-15 19:46 29.04267 -82.89034 7482 ft 117 kts 156°
2026-04-15 19:47 29.03510 -82.88681 7482 ft 117 kts 156°
2026-04-15 19:47 29.02757 -82.88331 7479 ft 117 kts 156°
2026-04-15 19:47 29.02002 -82.87982 7480 ft 117 kts 156°
2026-04-15 19:47 29.01250 -82.87635 7481 ft 116 kts 157°
2026-04-15 19:48 29.00498 -82.87289 7478 ft 117 kts 157°
2026-04-15 19:48 28.99739 -82.86942 7481 ft 118 kts 157°
2026-04-15 19:48 28.98981 -82.86594 7482 ft 117 kts 157°
2026-04-15 19:48 28.98230 -82.86249 7481 ft 116 kts 156°
2026-04-15 19:49 28.97480 -82.85906 7481 ft 116 kts 157°
2026-04-15 19:49 28.96732 -82.85563 7484 ft 116 kts 156°
2026-04-15 19:49 28.95980 -82.85219 7481 ft 117 kts 157°
2026-04-15 19:49 28.95228 -82.84875 7484 ft 116 kts 157°
2026-04-15 19:50 28.94475 -82.84530 7484 ft 117 kts 157°
2026-04-15 19:50 28.93722 -82.84185 7482 ft 117 kts 157°
2026-04-15 19:50 28.92965 -82.83839 7484 ft 117 kts 156°
2026-04-15 19:50 28.92212 -82.83494 7485 ft 116 kts 156°
2026-04-15 19:51 28.91467 -82.83153 7484 ft 116 kts 157°
2026-04-15 19:51 28.90719 -82.82812 7485 ft 116 kts 156°
2026-04-15 19:51 28.89967 -82.82469 7484 ft 117 kts 157°
2026-04-15 19:51 28.89225 -82.82130 7485 ft 116 kts 157°
2026-04-15 19:52 28.88474 -82.81787 7484 ft 116 kts 157°
2026-04-15 19:52 28.87726 -82.81445 7483 ft 116 kts 157°
2026-04-15 19:52 28.86961 -82.81097 7484 ft 117 kts 156°
2026-04-15 19:52 28.86217 -82.80757 7485 ft 117 kts 157°
2026-04-15 19:53 28.85464 -82.80413 7485 ft 116 kts 156°
2026-04-15 19:53 28.84712 -82.80071 7483 ft 118 kts 157°
2026-04-15 19:53 28.83952 -82.79724 7486 ft 117 kts 157°
2026-04-15 19:53 28.83197 -82.79380 7484 ft 117 kts 157°
2026-04-15 19:54 28.82442 -82.79036 7478 ft 116 kts 156°
2026-04-15 19:54 28.81691 -82.78693 7480 ft 116 kts 157°
2026-04-15 19:54 28.80941 -82.78350 7479 ft 117 kts 157°
2026-04-15 19:54 28.80186 -82.78006 7473 ft 118 kts 156°
2026-04-15 19:55 28.79420 -82.77659 7481 ft 118 kts 156°
2026-04-15 19:55 28.78657 -82.77311 7478 ft 118 kts 156°
2026-04-15 19:55 28.77891 -82.76962 7480 ft 119 kts 156°
2026-04-15 19:55 28.77125 -82.76613 7480 ft 118 kts 156°
2026-04-15 19:56 28.76365 -82.76266 7479 ft 118 kts 157°
2026-04-15 19:56 28.75598 -82.75917 7480 ft 119 kts 156°
2026-04-15 19:56 28.74833 -82.75569 7480 ft 118 kts 157°
2026-04-15 19:56 28.74071 -82.75221 7480 ft 118 kts 157°
2026-04-15 19:57 28.73305 -82.74873 7479 ft 119 kts 157°
2026-04-15 19:57 28.72542 -82.74525 7480 ft 118 kts 157°
2026-04-15 19:57 28.71778 -82.74177 7479 ft 119 kts 157°
2026-04-15 19:57 28.71011 -82.73828 7480 ft 118 kts 157°
2026-04-15 19:58 28.70247 -82.73480 7480 ft 118 kts 157°
2026-04-15 19:58 28.69482 -82.73133 7480 ft 118 kts 157°
2026-04-15 19:58 28.68721 -82.72786 7480 ft 118 kts 157°
2026-04-15 19:58 28.67960 -82.72440 7480 ft 118 kts 157°
2026-04-15 19:59 28.67456 -82.72211 7479 ft 118 kts 157°
2026-04-15 19:59 28.66693 -82.71865 7480 ft 118 kts 157°
2026-04-15 19:59 28.65930 -82.71518 7480 ft 118 kts 157°
2026-04-15 19:59 28.65168 -82.71171 7479 ft 118 kts 157°
2026-04-15 20:00 28.64404 -82.70824 7478 ft 118 kts 157°
2026-04-15 20:00 28.63646 -82.70479 7480 ft 117 kts 157°
2026-04-15 20:00 28.62886 -82.70134 7480 ft 118 kts 157°
2026-04-15 20:00 28.62122 -82.69787 7483 ft 118 kts 157°
2026-04-15 20:01 28.61362 -82.69442 7482 ft 118 kts 157°
2026-04-15 20:01 28.60599 -82.69096 7481 ft 118 kts 157°
2026-04-15 20:01 28.59837 -82.68750 7481 ft 118 kts 157°
2026-04-15 20:01 28.59077 -82.68405 7481 ft 118 kts 157°
2026-04-15 20:02 28.58314 -82.68059 7480 ft 118 kts 156°
2026-04-15 20:02 28.57551 -82.67713 7480 ft 118 kts 157°
2026-04-15 20:02 28.56788 -82.67367 7479 ft 118 kts 156°
2026-04-15 20:02 28.56024 -82.67021 7481 ft 118 kts 157°
2026-04-15 20:03 28.55263 -82.66675 7479 ft 118 kts 157°
2026-04-15 20:03 28.54495 -82.66328 7481 ft 119 kts 157°
2026-04-15 20:03 28.53731 -82.65981 7480 ft 118 kts 157°
2026-04-15 20:03 28.52976 -82.65638 7479 ft 119 kts 157°
2026-04-15 20:04 28.52209 -82.65290 7480 ft 118 kts 157°
2026-04-15 20:04 28.51445 -82.64944 7480 ft 118 kts 157°
2026-04-15 20:04 28.50683 -82.64599 7481 ft 118 kts 157°
2026-04-15 20:04 28.49919 -82.64253 7478 ft 119 kts 157°
2026-04-15 20:05 28.49151 -82.63905 7479 ft 119 kts 157°
2026-04-15 20:05 28.48387 -82.63559 7479 ft 118 kts 157°
2026-04-15 20:05 28.47623 -82.63213 7479 ft 118 kts 157°
2026-04-15 20:05 28.46855 -82.62866 7481 ft 119 kts 157°
2026-04-15 20:06 28.46090 -82.62518 7480 ft 119 kts 156°
2026-04-15 20:06 28.45312 -82.62167 7481 ft 120 kts 156°
2026-04-15 20:06 28.44539 -82.61816 7481 ft 119 kts 156°
2026-04-15 20:06 28.43767 -82.61466 7480 ft 120 kts 156°
2026-04-15 20:07 28.42993 -82.61116 7478 ft 120 kts 157°
2026-04-15 20:07 28.42220 -82.60766 7480 ft 119 kts 156°
2026-04-15 20:07 28.41455 -82.60420 7479 ft 120 kts 156°
2026-04-15 20:07 28.40680 -82.60070 7481 ft 119 kts 157°
2026-04-15 20:08 28.39906 -82.59721 7480 ft 120 kts 157°
2026-04-15 20:08 28.39131 -82.59371 7481 ft 120 kts 156°
2026-04-15 20:08 28.38361 -82.59022 7480 ft 119 kts 156°
2026-04-15 20:08 28.37589 -82.58673 7479 ft 120 kts 157°
2026-04-15 20:09 28.36815 -82.58321 7480 ft 120 kts 155°
2026-04-15 20:09 28.36093 -82.57854 7481 ft 119 kts 146°
2026-04-15 20:09 28.35408 -82.57325 7478 ft 119 kts 144°
2026-04-15 20:09 28.34727 -82.56786 7481 ft 119 kts 144°
2026-04-15 20:10 28.34050 -82.56245 7480 ft 119 kts 144°
2026-04-15 20:10 28.33372 -82.55702 7480 ft 119 kts 144°
2026-04-15 20:10 28.32698 -82.55159 7477 ft 119 kts 144°
2026-04-15 20:10 28.32022 -82.54617 7488 ft 119 kts 144°
2026-04-15 20:11 28.31348 -82.54073 7498 ft 119 kts 144°
2026-04-15 20:11 28.30670 -82.53527 7506 ft 119 kts 144°
2026-04-15 20:11 28.29992 -82.52980 7510 ft 120 kts 144°
2026-04-15 20:11 28.29326 -82.52441 7510 ft 119 kts 144°
2026-04-15 20:12 28.28652 -82.51895 7513 ft 119 kts 143°
2026-04-15 20:12 28.27976 -82.51348 7512 ft 120 kts 144°
2026-04-15 20:12 28.27298 -82.50799 7513 ft 119 kts 144°
2026-04-15 20:12 28.26622 -82.50252 7513 ft 120 kts 144°
2026-04-15 20:13 28.25946 -82.49704 7508 ft 119 kts 143°
2026-04-15 20:13 28.25267 -82.49156 7508 ft 120 kts 144°
2026-04-15 20:13 28.24587 -82.48605 7508 ft 120 kts 144°
2026-04-15 20:13 28.23903 -82.48052 7511 ft 119 kts 143°
2026-04-15 20:14 28.23228 -82.47505 7510 ft 119 kts 144°
2026-04-15 20:14 28.22560 -82.46964 7510 ft 119 kts 144°
2026-04-15 20:14 28.21883 -82.46416 7509 ft 120 kts 144°
2026-04-15 20:14 28.21206 -82.45869 7508 ft 120 kts 144°
2026-04-15 20:15 28.20529 -82.45322 7514 ft 119 kts 144°
2026-04-15 20:15 28.19855 -82.44777 7512 ft 120 kts 144°
2026-04-15 20:15 28.19177 -82.44229 7516 ft 119 kts 144°
2026-04-15 20:15 28.18501 -82.43682 7512 ft 120 kts 144°
2026-04-15 20:16 28.17836 -82.43108 7519 ft 119 kts 138°
2026-04-15 20:16 28.17240 -82.42456 7514 ft 119 kts 135°
2026-04-15 20:16 28.16654 -82.41784 7516 ft 120 kts 135°
2026-04-15 20:16 28.16074 -82.41111 7515 ft 119 kts 135°
2026-04-15 20:17 28.15495 -82.40437 7522 ft 119 kts 134°
2026-04-15 20:17 28.14916 -82.39761 7519 ft 120 kts 134°
2026-04-15 20:17 28.14328 -82.39074 7512 ft 124 kts 134°
2026-04-15 20:17 28.13742 -82.38385 7516 ft 119 kts 134°
2026-04-15 20:18 28.13167 -82.37708 7513 ft 120 kts 134°
2026-04-15 20:18 28.12585 -82.37026 7515 ft 120 kts 134°
2026-04-15 20:18 28.12005 -82.36345 7495 ft 120 kts 134°
2026-04-15 20:18 28.11421 -82.35661 7492 ft 122 kts 134°
2026-04-15 20:19 28.10835 -82.34973 7499 ft 120 kts 134°
2026-04-15 20:19 28.10249 -82.34285 7492 ft 123 kts 134°
2026-04-15 20:19 28.09660 -82.33592 7495 ft 121 kts 134°
2026-04-15 20:19 28.09074 -82.32902 7499 ft 120 kts 134°
2026-04-15 20:20 28.08495 -82.32221 7495 ft 121 kts 134°
2026-04-15 20:20 28.07911 -82.31535 7491 ft 122 kts 134°
2026-04-15 20:20 28.07313 -82.30836 7496 ft 123 kts 134°
2026-04-15 20:20 28.06728 -82.30145 7497 ft 120 kts 134°
2026-04-15 20:21 28.06374 -82.29727 7493 ft 120 kts 134°
2026-04-15 20:21 28.06271 -82.29605 7490 ft 121 kts 134°
2026-04-15 20:21 28.05680 -82.28914 7493 ft 123 kts 134°
2026-04-15 20:22 28.04954 -82.28417 7475 ft 125 kts 162°
2026-04-15 20:22 28.04113 -82.28268 7475 ft 124 kts 172°
2026-04-15 20:22 28.03251 -82.28188 7478 ft 124 kts 172°
2026-04-15 20:22 28.02391 -82.28116 7473 ft 125 kts 173°
2026-04-15 20:23 28.01522 -82.28041 7479 ft 124 kts 172°
2026-04-15 20:23 28.00668 -82.27964 7472 ft 124 kts 172°
2026-04-15 20:23 27.99809 -82.27887 7475 ft 125 kts 173°
2026-04-15 20:23 27.98942 -82.27809 7478 ft 125 kts 173°
2026-04-15 20:24 27.98081 -82.27729 7480 ft 123 kts 172°
2026-04-15 20:24 27.96374 -82.27571 7475 ft 122 kts 172°
2026-04-15 20:24 27.95522 -82.27492 7475 ft 123 kts 172°
2026-04-15 20:25 27.94671 -82.27414 7476 ft 123 kts 172°
2026-04-15 20:25 27.93811 -82.27335 7475 ft 125 kts 173°
2026-04-15 20:25 27.92949 -82.27255 7477 ft 124 kts 173°
2026-04-15 20:25 27.92086 -82.27175 7480 ft 124 kts 173°
2026-04-15 20:26 27.91230 -82.27095 7479 ft 123 kts 172°
2026-04-15 20:26 27.90369 -82.27015 7481 ft 125 kts 172°
2026-04-15 20:26 27.89510 -82.26934 7478 ft 125 kts 173°
2026-04-15 20:26 27.88638 -82.26853 7486 ft 125 kts 173°
2026-04-15 20:27 27.87772 -82.26772 7483 ft 125 kts 173°
2026-04-15 20:27 27.86907 -82.26690 7504 ft 124 kts 173°
2026-04-15 20:27 27.86047 -82.26609 7505 ft 125 kts 173°
2026-04-15 20:27 27.85193 -82.26477 7510 ft 122 kts 162°
2026-04-15 20:28 27.84396 -82.26146 7498 ft 124 kts 155°
2026-04-15 20:28 27.83611 -82.25767 7506 ft 121 kts 154°
2026-04-15 20:28 27.82840 -82.25384 7500 ft 121 kts 154°
2026-04-15 20:28 27.82070 -82.24999 7503 ft 121 kts 154°
2026-04-15 20:29 27.81290 -82.24607 7505 ft 124 kts 154°
2026-04-15 20:29 27.80502 -82.24209 7506 ft 123 kts 153°
2026-04-15 20:29 27.79724 -82.23813 7505 ft 123 kts 154°
2026-04-15 20:29 27.78944 -82.23416 7504 ft 122 kts 153°
2026-04-15 20:30 27.78163 -82.23018 7502 ft 124 kts 154°
2026-04-15 20:30 27.77381 -82.22619 7501 ft 124 kts 154°
2026-04-15 20:30 27.76594 -82.22218 7506 ft 123 kts 153°
2026-04-15 20:30 27.75823 -82.21822 7504 ft 121 kts 153°
2026-04-15 20:31 27.75052 -82.21427 7507 ft 121 kts 153°
2026-04-15 20:31 27.74284 -82.21035 7507 ft 122 kts 153°
2026-04-15 20:31 27.73514 -82.20640 7506 ft 121 kts 153°
2026-04-15 20:31 27.72748 -82.20248 7508 ft 121 kts 153°
2026-04-15 20:32 27.71984 -82.19858 7505 ft 123 kts 153°
2026-04-15 20:32 27.71214 -82.19463 7505 ft 121 kts 153°
2026-04-15 20:32 27.70444 -82.19068 7505 ft 122 kts 153°
2026-04-15 20:32 27.69671 -82.18673 7504 ft 122 kts 153°
2026-04-15 20:33 27.68899 -82.18279 7502 ft 123 kts 154°
2026-04-15 20:33 27.68118 -82.17880 7509 ft 123 kts 153°
2026-04-15 20:33 27.67342 -82.17482 7503 ft 123 kts 154°
2026-04-15 20:33 27.66561 -82.17083 7507 ft 123 kts 154°
2026-04-15 20:34 27.65782 -82.16685 7504 ft 123 kts 154°
2026-04-15 20:34 27.65003 -82.16287 7505 ft 123 kts 154°
2026-04-15 20:34 27.64227 -82.15889 7506 ft 121 kts 153°
2026-04-15 20:34 27.63462 -82.15497 7501 ft 121 kts 153°
2026-04-15 20:35 27.62730 -82.15019 7506 ft 121 kts 144°
2026-04-15 20:35 27.62042 -82.14476 7506 ft 120 kts 143°
2026-04-15 20:35 27.61477 -82.14017 7505 ft 122 kts 143°
2026-04-15 20:35 27.60783 -82.13446 7505 ft 122 kts 142°
2026-04-15 20:36 27.60108 -82.12889 7504 ft 122 kts 142°
2026-04-15 20:36 27.59410 -82.12311 7504 ft 123 kts 142°
2026-04-15 20:36 27.58738 -82.11753 7504 ft 120 kts 142°
2026-04-15 20:36 27.58056 -82.11187 7505 ft 121 kts 142°
2026-04-15 20:37 27.57384 -82.10630 7504 ft 122 kts 142°
2026-04-15 20:37 27.56710 -82.10069 7506 ft 119 kts 142°
2026-04-15 20:37 27.56039 -82.09510 7504 ft 121 kts 142°
2026-04-15 20:37 27.55354 -82.08944 7504 ft 124 kts 142°
2026-04-15 20:38 27.54663 -82.08370 7506 ft 123 kts 142°
2026-04-15 20:38 27.53980 -82.07800 7506 ft 121 kts 142°
2026-04-15 20:38 27.53297 -82.07231 7505 ft 123 kts 142°
2026-04-15 20:38 27.52608 -82.06657 7508 ft 123 kts 142°
2026-04-15 20:39 27.51931 -82.06090 7511 ft 119 kts 142°
2026-04-15 20:39 27.51259 -82.05529 7504 ft 122 kts 142°
2026-04-15 20:39 27.50575 -82.04960 7509 ft 122 kts 142°
2026-04-15 20:39 27.49907 -82.04401 7506 ft 119 kts 142°
2026-04-15 20:40 27.49233 -82.03839 7503 ft 121 kts 142°
2026-04-15 20:40 27.48546 -82.03270 7506 ft 124 kts 142°
2026-04-15 20:40 27.47856 -82.02704 7505 ft 123 kts 145°
2026-04-15 20:40 27.47117 -82.02217 7506 ft 123 kts 149°
2026-04-15 20:41 27.46368 -82.01760 7452 ft 121 kts 149°
2026-04-15 20:41 27.45642 -82.01309 7143 ft 120 kts 149°
2026-04-15 20:41 27.44906 -82.00860 6982 ft 120 kts 149°
2026-04-15 20:41 27.44162 -82.00418 6907 ft 121 kts 150°
2026-04-15 20:42 27.43411 -81.99980 6877 ft 122 kts 150°
2026-04-15 20:42 27.42668 -81.99548 6864 ft 122 kts 150°
2026-04-15 20:42 27.41907 -81.99106 6856 ft 121 kts 150°
2026-04-15 20:42 27.41159 -81.98671 6850 ft 122 kts 150°
2026-04-15 20:43 27.40406 -81.98233 6851 ft 122 kts 150°
2026-04-15 20:43 27.39666 -81.97801 6848 ft 121 kts 150°
2026-04-15 20:43 27.38917 -81.97365 6846 ft 122 kts 150°
2026-04-15 20:43 27.38183 -81.96934 6854 ft 113 kts 149°
2026-04-15 20:44 27.37507 -81.96524 6535 ft 110 kts 148°
2026-04-15 20:44 27.36834 -81.96112 6160 ft 110 kts 148°
2026-04-15 20:44 27.36158 -81.95702 5784 ft 111 kts 148°
2026-04-15 20:44 27.35481 -81.95295 5426 ft 110 kts 148°
2026-04-15 20:45 27.34811 -81.94893 5067 ft 109 kts 148°
2026-04-15 20:45 27.34143 -81.94494 4690 ft 109 kts 148°
2026-04-15 20:45 27.33473 -81.94097 4312 ft 109 kts 148°
2026-04-15 20:45 27.32799 -81.93700 3934 ft 111 kts 149°
2026-04-15 20:46 27.32115 -81.93298 3574 ft 110 kts 149°
2026-04-15 20:46 27.31439 -81.92900 3201 ft 110 kts 149°
2026-04-15 20:46 27.30759 -81.92502 2830 ft 110 kts 149°
2026-04-15 20:46 27.30088 -81.92108 2471 ft 108 kts 149°
2026-04-15 20:47 27.29428 -81.91719 2099 ft 106 kts 149°
2026-04-15 20:47 27.28766 -81.91332 1769 ft 109 kts 149°
2026-04-15 20:47 27.28076 -81.90940 1622 ft 111 kts 150°
2026-04-15 20:47 27.27399 -81.90557 1567 ft 106 kts 150°
2026-04-15 20:48 27.26732 -81.90179 1531 ft 109 kts 149°
2026-04-15 20:48 27.26045 -81.89791 1518 ft 111 kts 149°
2026-04-15 20:48 27.25370 -81.89393 1514 ft 108 kts 144°
2026-04-15 20:48 27.24766 -81.88878 1511 ft 110 kts 138°
2026-04-15 20:49 27.24183 -81.88331 1510 ft 109 kts 137°
2026-04-15 20:49 27.23601 -81.87777 1497 ft 112 kts 139°
2026-04-15 20:49 27.23003 -81.87210 1509 ft 111 kts 138°
2026-04-15 20:49 27.22425 -81.86649 1511 ft 109 kts 135°
2026-04-15 20:50 27.21861 -81.86098 1505 ft 109 kts 137°
2026-04-15 20:50 27.21293 -81.85549 1506 ft 105 kts 137°
2026-04-15 20:50 27.20617 -81.85248 1499 ft 112 kts 172°
2026-04-15 20:50 27.19857 -81.85502 1405 ft 115 kts 210°
2026-04-15 20:51 27.19279 -81.86150 1211 ft 117 kts 229°
2026-04-15 20:51 27.18760 -81.86882 1150 ft 119 kts 229°
2026-04-15 20:51 27.18306 -81.87526 1115 ft 96 kts 230°
2026-04-15 20:51 27.17937 -81.88052 1092 ft 77 kts 228°
2026-04-15 20:52 27.17622 -81.88460 1082 ft 64 kts 207°
2026-04-15 20:52 27.17226 -81.88520 1075 ft 55 kts 147°
2026-04-15 20:52 27.17007 -81.88203 1069 ft 54 kts 94°
2026-04-15 20:52 27.17164 -81.87861 1065 ft 51 kts 46°
2026-04-15 20:53 27.17365 -81.87555 1064 ft 48 kts 70°
2026-04-15 20:53 27.17490 -81.87188 1066 ft 52 kts 73°
2026-04-15 20:53 27.17614 -81.86817 1101 ft 50 kts 72°
2026-04-15 20:53 27.17745 -81.86445 1015 ft 50 kts 68°
2026-04-15 20:54 27.17899 -81.86130 767 ft 43 kts 57°
2026-04-15 20:54 27.18078 -81.85878 646 ft 40 kts 55°
2026-04-15 20:54 27.18268 -81.85671 572 ft 36 kts 57°
2026-04-15 20:54 27.18402 -81.85455 430 ft 33 kts 65°
2026-04-15 20:55 27.18515 -81.85246 383 ft 30 kts 63°
2026-04-15 20:55 27.18631 -81.85051 365 ft 30 kts 55°
2026-04-15 20:55 27.18767 -81.84874 315 ft 29 kts 55°
2026-04-15 20:55 27.18889 -81.84705 235 ft 27 kts 64°
2026-04-15 20:56 27.19002 -81.84539 203 ft 27 kts 59°
2026-04-15 20:56 27.19116 -81.84378 145 ft 26 kts 62°
2026-04-15 20:56 27.19222 -81.84224 102 ft 24 kts 59°
2026-04-15 20:56 27.19319 -81.84080 81 ft 21 kts 63°
2026-04-15 20:57 27.19388 -81.83983 78 ft 13 kts 63°
2026-04-15 20:57 27.19437 -81.83912 78 ft 10 kts 62°
2026-04-15 20:57 27.19472 -81.83859 76 ft 8 kts 63°
2026-04-15 20:57 27.19501 -81.83813 74 ft 6 kts 63°
2026-04-15 20:58 27.19529 -81.83774 73 ft 7 kts 63°
2026-04-15 20:58 27.19560 -81.83737 78 ft 6 kts 25°
2026-04-15 20:58 27.19598 -81.83755 74 ft 7 kts 323°
2026-04-15 20:58 27.19627 -81.83776 76 ft 4 kts 323°
2026-04-15 20:59 27.19647 -81.83800 75 ft 5 kts 305°
2026-04-15 20:59 27.19648 -81.83815 84 ft 1 kts 273°
2026-04-15 20:59 27.19654 -81.83817 75 ft 2 kts 236°
2026-04-15 20:59 27.19653 -81.83827 76 ft 0 kts 236°
2026-04-15 21:00 27.19654 -81.83826 75 ft 0 kts 236°
2026-04-15 21:00 27.19651 -81.83830 61 ft 0 kts 236°